Location: Asheville, NC
(35.6000°N, 82.5500°W)
Time: 16:52:47
(UTC-05:00)

ISS - Pass Details

Date: 12 December 2017
Orbit: 402 x 407 km, 51.6° (Epoch: 23 January)

Event Time Altitude Azimuth Distance (km) Brightness Sun altitude
Rises 18:54:30 0° 321° (NW) 2,332 0.4 -19.1°
Reaches altitude 10° 18:56:49 10° 335° (NNW) 1,468 -0.9 -19.6°
Enters shadow 18:57:51 17° 348° (NNW) 1,136 -1.6 -19.8°
